Погода в Малом Самовце

Россия / Воронежская область     51°55′36″N   40°19′50″E
В апреле 2022 года жителям России запретили посещать сайт meteo.paraplan.net по решению Генеральной прокуратуры. Аудитория сайта уменьшилась в 10 раз. Владельцы сайта не видят смысла в поддержке погодного сервера в таких условиях. Сайт будет закрыт в октябре.
темп.,
°C
ветер,
м/с
пор.,
м/с
влажн.,
%
обл.,
%
осадки,
мм/ч
давл.,
гПа
погр.,
м
25 сентября, вс
вс2500:00+8ююз5118499 0.0 1007379
03:00+8ююз61184100 0.0 1006529
06:00+9ююз71188100 0.8 10041236
09:00+7з5888100 2.5 10051021
12:00+8з5882100 0.2 1006880
15:00+8з6985100 0.3 1007943
18:00+8з61086100 0.1 10091042
21:00+7з71189100 0.2 10091155
26 сентября, пн
пн2600:00+8з71286100 0.1 10101119
03:00+8з61383100 0.1 1011803
06:00+8з61475100 0.0 1011596
09:00+9з61264100 0.0 1013633
12:00+11з61161100 0.0 10141426
15:00+13з61152100 0.0 10141847
18:00+11з3560100 0.0 1014135
21:00+11зюз2265100 0.0 101446
27 сентября, вт
вт2700:00+10ю0065100 0.0 101410
03:00+9юв1179100 0.6 101433
06:00+8в4696100 4.4 1012236
09:00+9всв4797100 13.9 1012280
12:00+9всв4696100 2.0 1011352
15:00+12св2190100 2.0 1011252
18:00+11св2496100 0.3 1010104
21:00+12в3498100 1.9 100993
28 сентября, ср
ср2800:00+12ююв3789100 0.1 1008166
03:00+12вюв3789100 0.1 1007160
06:00+12юв4992100 0.1 1005233
09:00+13ююв2687100 0.1 1005230
12:00+14вюв51486100 0.9 1003587
15:00+14ю61288100 1.5 1002653
18:00+15ю389179 0.1 1003218
21:00+13ююз499515 0.3 1004188
29 сентября, чт
чт2900:00+12зюз3794100 0.0 1005147
03:00+11зюз389558 0.0 1007164
06:00+10з38961 0.0 1009168
09:00+13зсз46847 0.0 1011355
12:00+16зсз556250 0.0 1013970
15:00+17сз455816 0.0 10141210
18:00+13ссз34745 0.0 101657
21:00+11ссв3486100 0.0 101881